Location: ???? ?????????
(31.1304°N, 31.7111°E)
Time: 18:42:18
(UTC+00:00)

OAO 2 Rocket - Pass Details

Date: 29 October 2020
Orbit: 676 x 746 km, 35.0° (Epoch: 30 November)

Event Time Altitude Azimuth Distance (km) Brightness Sun altitude
Rises 17:04:25 0° 283° (WNW) 3,053 7.9 -25.7°
Reaches altitude 10° 17:06:52 10° 287° (WNW) 2,127 6.7 -26.2°
Enters shadow 17:11:08 53° 335° (NNW) 837 3.7 -27.1°
